This is the latest recevied weather packets stored in our database for station/object WE8M. If no packets are shown the sender has not sent any weather packets the latest 10 day(s).
| Time | Temp. | Humidity | Pressure | Rain* | Wind** | Luminosity | Snow |
|---|---|---|---|---|---|---|---|
| 1777855800 | 13.33° C | 45% | 1014.1 hPa | 0 mm | - | - | - |
| 1777855498 | 13.33° C | 46% | 1013.7 hPa | 0 mm | - | - | - |
| 1777855195 | 13.33° C | 45% | 1013.9 hPa | 0 mm | - | - | - |
| 1777854890 | 13.33° C | 44% | 1013.6 hPa | 0 mm | - | - | - |
| 1777854588 | 13.33° C | 44% | 1013.6 hPa | 0 mm | - | - | - |
| 1777854285 | 13.33° C | 43% | 1013.7 hPa | 0 mm | - | - | - |
| 1777853982 | 13.89° C | 43% | 1013.6 hPa | 0 mm | - | - | - |
| 1777853680 | 13.89° C | 42% | 1013.4 hPa | 0 mm | - | - | - |
| 1777853376 | 13.89° C | 42% | 1013.5 hPa | 0 mm | - | - | - |
| 1777853073 | 13.89° C | 43% | 1013.5 hPa | 0 mm | - | - | - |
| 1777852770 | 13.89° C | 41% | 1013.5 hPa | 0 mm | - | - | - |
| 1777852468 | 13.89° C | 42% | 1013.7 hPa | 0 mm | - | - | - |
| 1777852165 | 14.44° C | 45% | 1013.9 hPa | 0 mm | - | - | - |
| 1777851863 | 14.44° C | 41% | 1014.1 hPa | 0 mm | - | - | - |
| 1777851560 | 14.44° C | 42% | 1014.1 hPa | 0 mm | - | - | - |
| 1777851257 | 13.89° C | 42% | 1014.1 hPa | 0 mm | - | - | - |
| 1777850953 | 13.89° C | 46% | 1014.1 hPa | 0 mm | - | - | - |
| 1777850650 | 14.44° C | 44% | 1014.4 hPa | 0 mm | - | - | - |
| 1777850348 | 14.44° C | 46% | 1014.6 hPa | 0 mm | - | - | - |
| 1777850045 | 14.44° C | 44% | 1014.3 hPa | 0 mm | - | - | - |
| 1777849741 | 14.44° C | 46% | 1014.4 hPa | 0 mm | - | - | - |
| 1777849438 | 14.44° C | 45% | 1014.6 hPa | 0 mm | - | - | - |
| 1777849136 | 14.44° C | 42% | 1014.5 hPa | 0 mm | - | - | - |
| 1777848832 | 14.44° C | 43% | 1014.7 hPa | 0 mm | - | - | - |
| 1777848528 | 14.44° C | 44% | 1014.7 hPa | 0 mm | - | - | - |
* Rain latest hour (hover to see other rain measurements)
** Current wind speed in m/s (hover to see current wind gust speed)